Springfield, OH

2:02 PM EST on December 16, 2017 (GMT -0500)
Springfield-Beckley Municipal

Weather History for KSGH - August, 2013

Change the Weather History Date:

Friday, August 23, 2013

  Actual Average (KFFO) Record (KFFO)
Temperature  
Mean Temperature 74 °F -  
Max Temperature 84 °F 81 °F 96 °F (2007)
Min Temperature 63 °F 60 °F 50 °F (1997)
Cooling Degree Days 9    
Growing Degree Days 24 (Base 50)    
Moisture  
Dew Point 66 °F    
Average Humidity 87    
Maximum Humidity 100    
Minimum Humidity 48    
Precipitation  
Precipitation 0.00 in - - ()
Sea Level Pressure  
Sea Level Pressure 30.10 in    
Wind  
Wind Speed 6 mph (South)    
Max Wind Speed 10 mph    
Max Gust Speed -    
Visibility 4 miles    
Events Fog    
Averages and records for this station are not official NWS values.
T = Trace of Precipitation, MM = Missing Value Source: NWS Daily Summary

Daily Weather History Graph

Daily Weather History Graph

Search for Another Location

Airport or City:

Trip Planner

Search our weather history database for the weather conditions in past years. The results will help you decide how hot, cold, wet, or windy it might be!

Date:

Astronomy

Aug. 23, 2013 Rise Set
Actual Time 6:55 AM EDT 8:20 PM EDT
Civil Twilight 6:26 AM EDT 8:48 PM EDT
Nautical Twilight 5:52 AM EDT 9:22 PM EDT
Astronomical Twilight 5:16 AM EDT 9:57 PM EDT
Moon 9:38 PM EDT (8/23) 9:48 AM EDT (8/23)
Length of Visible Light 14h 21m
Length of Day
13h 24m
Waning Gibbous, 91% of the Moon is Illuminated
Aug 23
Waning Gibbous
Aug 28
Last Quarter
Sep 5
New
Sep 12
First Quarter
Sep 19
Full

Hourly Weather History & Observations

Time (EDT) Temp. Heat Index Dew Point Humidity Pressure Visibility Wind Dir Wind Speed Gust Speed Precip Events Conditions
12:06 AM 68.0 °F - 68.0 °F 100% 30.09 in 2.5 mi Calm Calm - N/A   Scattered Clouds
12:56 AM 68.0 °F - 68.0 °F 100% 30.07 in 2.0 mi SSW 4.6 mph - N/A   Mostly Cloudy
1:22 AM 69.8 °F - 69.8 °F 100% 30.11 in 2.5 mi WNW 8.1 mph - N/A   Overcast
1:29 AM 69.8 °F - 69.8 °F 100% 30.11 in 2.5 mi Variable 6.9 mph - N/A   Overcast
1:40 AM 69.8 °F - 69.8 °F 100% 30.11 in 3.0 mi Variable 6.9 mph - N/A   Overcast
1:56 AM 68.9 °F - 68.0 °F 97% 30.09 in 3.0 mi West 8.1 mph - N/A   Mostly Cloudy
2:03 AM 69.8 °F - 68.0 °F 94% 30.11 in 3.0 mi Variable 6.9 mph - N/A   Mostly Cloudy
2:29 AM 69.8 °F - 68.0 °F 94% 30.10 in 4.0 mi WNW 8.1 mph - N/A   Mostly Cloudy
2:56 AM 68.9 °F - 68.0 °F 97% 30.06 in 3.0 mi Variable 5.8 mph - N/A   Mostly Cloudy
3:56 AM 66.9 °F - 66.9 °F 100% 30.06 in 3.0 mi SW 4.6 mph - N/A   Partly Cloudy
4:03 AM 66.2 °F - 66.2 °F 100% 30.08 in 2.5 mi SW 5.8 mph - N/A   Partly Cloudy
4:56 AM 66.9 °F - 66.9 °F 100% 30.06 in 2.5 mi SSW 4.6 mph - N/A   Mostly Cloudy
5:26 AM 64.4 °F - 64.4 °F 100% 30.08 in 1.5 mi SSW 5.8 mph - N/A   Clear
5:29 AM 64.4 °F - 64.4 °F 100% 30.08 in 1.2 mi SSW 5.8 mph - N/A   Mostly Cloudy
5:35 AM 64.4 °F - 64.4 °F 100% 30.08 in 0.8 mi South 3.5 mph - N/A   Mist
5:40 AM 64.4 °F - 64.4 °F 100% 30.09 in 0.2 mi SSW 4.6 mph - N/A Fog Fog
5:56 AM 65.8 °F - 65.8 °F 100% 30.07 in 0.2 mi SSW 4.6 mph - N/A Fog Fog
6:10 AM 66.2 °F - 66.2 °F 100% 30.09 in 0.8 mi Variable 6.9 mph - N/A   Overcast
6:16 AM 66.2 °F - 66.2 °F 100% 30.09 in 1.2 mi Variable 6.9 mph - N/A   Overcast
6:26 AM 66.2 °F - 66.2 °F 100% 30.10 in 1.8 mi NNW 9.2 mph - N/A   Overcast
6:34 AM 66.2 °F - 66.2 °F 100% 30.10 in 2.5 mi Variable 5.8 mph - N/A   Overcast
6:41 AM 66.2 °F - 66.2 °F 100% 30.10 in 2.5 mi NW 8.1 mph - N/A   Overcast
6:45 AM 66.2 °F - 66.2 °F 100% 30.11 in 3.0 mi Variable 6.9 mph - N/A   Overcast
6:56 AM 66.9 °F - 66.9 °F 100% 30.09 in 3.0 mi SSW 4.6 mph - N/A   Overcast
7:21 AM 66.2 °F - 66.2 °F 100% 30.11 in 2.5 mi ESE 5.8 mph - N/A   Mostly Cloudy
7:38 AM 66.2 °F - 66.2 °F 100% 30.11 in 2.5 mi SSE 3.5 mph - N/A   Scattered Clouds
7:56 AM 68.0 °F - 66.9 °F 96% 30.10 in 2.5 mi ESE 5.8 mph - N/A   Clear
8:08 AM 68.0 °F - 66.2 °F 94% 30.12 in 3.0 mi Variable 5.8 mph - N/A   Clear
8:33 AM 69.8 °F - 68.0 °F 94% 30.13 in 3.0 mi Variable 6.9 mph - N/A   Partly Cloudy
8:56 AM 70.0 °F - 66.9 °F 90% 30.11 in 4.0 mi Variable 5.8 mph - N/A   Partly Cloudy
9:56 AM 73.9 °F - 65.8 °F 76% 30.11 in 7.0 mi NNW 8.1 mph - N/A   Clear
10:56 AM 75.9 °F - 68.0 °F 76% 30.11 in 7.0 mi Variable 5.8 mph - N/A   Clear
11:56 AM 79.0 °F - 68.9 °F 71% 30.12 in 7.0 mi Variable 5.8 mph - N/A   Partly Cloudy
12:56 PM 79.0 °F - 68.0 °F 69% 30.12 in 8.0 mi Variable 6.9 mph - N/A   Mostly Cloudy
1:08 PM 82.4 °F 85.4 °F 68.0 °F 62% 30.13 in 7.0 mi ENE 8.1 mph - N/A   Scattered Clouds
1:56 PM 82.9 °F 85.4 °F 66.9 °F 58% 30.10 in 8.0 mi Variable 6.9 mph - N/A   Scattered Clouds
2:56 PM 82.9 °F 85.0 °F 65.8 °F 56% 30.10 in 8.0 mi Variable 6.9 mph - N/A   Mostly Cloudy
3:56 PM 82.9 °F 84.2 °F 63.9 °F 52% 30.09 in 8.0 mi East 8.1 mph - N/A   Scattered Clouds
4:56 PM 82.9 °F 84.0 °F 63.0 °F 51% 30.08 in 8.0 mi Calm Calm - N/A   Scattered Clouds
5:56 PM 84.9 °F 85.9 °F 63.0 °F 48% 30.08 in 9.0 mi NNE 8.1 mph - N/A   Scattered Clouds
6:56 PM 82.9 °F 84.0 °F 63.0 °F 51% 30.09 in 8.0 mi NE 8.1 mph - N/A   Scattered Clouds
7:56 PM 77.0 °F - 63.9 °F 64% 30.11 in 8.0 mi NE 8.1 mph - N/A   Clear
8:56 PM 70.9 °F - 63.0 °F 76% 30.13 in 9.0 mi NE 6.9 mph - N/A   Clear
9:56 PM 70.0 °F - 61.9 °F 75% 30.15 in 9.0 mi NE 10.4 mph - N/A   Clear
10:56 PM 64.9 °F - 59.0 °F 81% 30.17 in 9.0 mi NE 6.9 mph - N/A   Clear
11:56 PM 63.0 °F - 57.9 °F 84% 30.19 in 9.0 mi ESE 5.8 mph - N/A   Clear